SCP
0 0 0 0 0 0 0 0 0 0 0 0 0 0 0 0 0 0 0 0 0 0 0 0 0 0 0 0 0 0 0 0 0 0 0 0 0 0 0 0 0 0 0 0 0 0 0 0 0 0 0 0 0 0
0 0 0 0 0 0 0 0 0 0 0 0 0 0 0 0 0 0 0 0 0 0 0 0 0 0 0 0 0 0 0 0 0 0 0 0 0 0 0 0 0 0 0 0 0 0 0 0 0 0 0 0 0 0
0 0 0 0 0 0 0 0 0 0 0 0 0 0 0 0 0 0 0 0 0 0 0 0 0 0 0 0 0 0 0 0 0 0 0 0 0 0 0 0 0 0 0 0 0 0 0 0 0 0 0 0 0 0
0 0 0 0 0 0 0 0 0 0 0 0 0 0 0 0 0 0 0 0 0 0 0 0 0 0 0 0 0 0 0 0 0 0 0 0 0 0 0 0 0 0 0 0 0 0 0 0 0 0 0 0 0 0
0 0 0 0 0 0 0 0 0 0 0 0 0 0 0 0 0 0 0 0 0 0 0 0 0 0 0 0 0 0 0 0 0 0 0 0 0 0 0 0 0 0 0 0 0 0 0 0 0 0 0 0 0 0
0 0 0 0 0 0 0 0 0 0 0 0 0 0 0 0 0 0 0 0 0 0 0 0 0 0 0 0 0 0 0 0 0 0 0 0 0 0 0 0 0 0 0 0 0 0 0 0 0 0 0 0 0 0
0 0 0 0 0 0 0 0 0 0 0 0 0 0 0 0 0 0 0 0 0 0 0 0 0 0 0 0 0 0 0 0 0 0 0 0 0 0 0 0 0 0 0 0 0 0 0 0 0 0 0 0 0 0
0 0 0 0 0 0 0 0 0 0 0 0 0 0 0 0 0 0 0 0 0 0 0 0 0 0 0 0 0 0 0 0 0 0 0 0 0 0 0 0 0 0 0 0 0 0 0 0 0 0 0 0 0 0
0 0 0 0 0 0 0 0 0 0 0 0 0 0 0 0 0 0 0 0 0 0 0 0 0 0 0 0 0 0 0 0 0 0 0 0 0 0 0 0 0 0 0 0 0 0 0 0 0 0 0 0 0 0
0 0 0 0 0 0 0 0 0 0 0 0 0 0 0 0 0 0 0 0 0 0 0 0 0 0 0 0 0 0 0 0 0 0 0 0 0 0 0 0 0 0 0 0 0 0 0 0 0 0 0 0 0 0
0 0 0 0 0 0 0 0 0 0 0 0 0 0 0 0 0 0 0 0 0 -0 0 0 0 0 0 0 0 0 0 0 0 0 0 0 0 0 0 0 0 0 0 0 0 0 0 0 0 0 0 0 0 0
0 0 0 0 0 0 0 0 0 0 0 0 0 0 0 0 0 0 0 0 0 -0 -0 0 0 0 0 0 0 0 0 0 0 0 0 0 0 0 0 0 0 0 0 0 0 0 0 0 0 0 0 0 0 0
0 0 0 0 0 0 0 0 0 0 0 0 0 0 0 0 0 0 0 0 0 0 0 -0 0 0 0 0 0 0 0 0 0 0 0 0 0 0 0 0 0 0 0 0 0 0 0 -0 -0 0 0 0 0 0
0 0 0 0 0 0 0 0 0 0 0 0 0 0 0 0 0 0 0 0 0 0 0 0 0 0 0 0 0 0 0 0 0 0 0 0 0 0 0 0 0 0 0 0 0 0 0 -0 -0 0 0 0 0 0
0 0 0 0 0 0 0 0 0 0 0 0 0 0 0 0 0 0 0 0 0 0 0 0 1 0 0 0 0 0 0 0 0 0 0 0 0 0 0 0 0 0 0 0 0 0 0 0 0 0 0 0 0 0
0 0 0 0 0 0 0 0 0 0 0 0 0 0 0 0 0 0 0 0 0 0 0 0 0 0 0 0 0 0 0 0 0 0 0 0 0 0 0 0 0 0 0 0 0 0 0 0 0 0 0 0 0 0
0 0 0 0 0 0 0 0 0 0 0 0 0 0 0 0 0 0 0 0 0 0 0 0 0 0 0 0 0 0 0 0 0 0 0 0 0 0 0 0 0 0 0 0 0 0 0 0 0 0 0 0 0 0
0 0 0 0 0 0 0 0 0 0 0 0 0 0 0 0 0 0 0 0 0 0 0 -0 0 0 0 0 0 0 0 0 0 0 0 0 0 0 0 0 0 0 0 0 0 0 0 0 0 0 0 0 0 0
0 0 0 -0 0 0 0 0 0 0 0 0 0 0 0 0 0 0 0 0 0 0 0 0 -0 0 0 0 0 0 0 0 0 0 0 0 0 0 0 0 0 0 0 0 0 0 0 0 0 0 0 0 0 0
0 0 0 0 0 0 0 0 0 0 0 0 0 0 0 0 0 0 0 0 0 0 -0 -0 0 0 0 0 0 0 0 0 0 0 0 0 0 0 0 0 0 0 0 0 0 0 0 0 0 0 0 0 0 0
0 0 0 0 0 0 0 0 0 0 0 0 0 -0 0 0 0 -0 0 0 0 0 -0 -0 -0 -0 -0 0 0 0 0 0 0 0 0 0 0 0 0 0 0 0 0 0 0 0 0 0 0 0 0 0 0 0
0 0 0 0 0 0 0 0 0 0 0 0 0 0 0 0 0 -0 -0 0 0 -0 -0 -0 -0 -0 0 0 0 0 0 0 0 0 0 0 0 0 0 0 0 0 0 0 0 0 0 0 0 0 0 0 0 0
0 0 0 0 0 0 0 0 0 0 0 0 0 0 0 0 0 0 0 0 0 0 0 0 0 -0 0 0 0 0 0 0 0 0 0 0 0 0 0 0 0 0 0 0 0 0 0 0 0 0 0 0 0 0
0 0 0 0 0 0 0 0 0 0 0 0 0 0 0 0 0 0 0 0 0 0 0 0 0 0 0 0 0 0 -0 0 0 0 0 0 0 0 0 0 0 0 0 0 0 0 0 0 0 0 0 0 0 0
0 0 0 0 0 0 0 0 0 0 0 -0 -0 0 -0 0 0 0 0 0 0 -0 0 0 0 0 0 0 0 0 0 0 0 0 0 0 0 0 0 0 0 0 0 0 0 0 0 0 0 0 0 0 0 0
0 0 0 0 0 -0 0 0 0 0 -0 -0 0 0 0 0 0 0 0 0 0 -0 0 0 0 0 0 0 0 0 0 0 0 0 0 0 0 0 0 0 0 0 0 0 0 0 0 0 0 0 0 0 0 0
0 0 -0 0 -0 0 0 0 -0 -0 -0 -0 0 0 0 0 0 0 0 0 0 0 -0 0 0 0 0 0 0 0 0 0 0 0 0 0 0 0 0 0 0 0 0 0 0 0 0 0 0 0 0 0 0 0
-0 -0 0 0 0 -0 0 0 0 0 0 0 0 0 0 0 0 0 0 0 0 -0 -0 0 0 0 0 0 0 0 0 0 0 0 0 0 0 0 0 0 0 -0 0 0 0 0 0 0 0 0 0 0 0 0
0 0 0 0 0 0 0 0 0 0 0 0 0 0 0 0 0 0 0 0 0 -0 -0 0 0 0 0 0 0 0 0 0 0 0 0 0 0 0 0 0 0 0 0 0 0 0 0 0 0 0 0 0 0 0
0 0 0 0 0 0 0 0 0 0 0 0 0 0 0 0 0 0 0 0 0 0 -0 -0 -0 -0 0 0 0 0 0 -0 0 -0 -0 0 0 0 0 0 0 0 0 0 0 0 0 0 0 0 0 0 0 0
0 0 0 0 0 0 0 0 0 0 0 0 0 0 0 0 0 0 0 0 0 0 0 0 0 -0 -0 -0 -0 -0 0 0 0 0 0 0 0 0 0 0 0 0 0 0 0 0 0 0 0 0 0 0 0 0
0 0 0 0 0 0 0 0 0 0 0 0 0 0 0 0 0 0 0 0 0 0 0 0 0 0 0 0 0 0 0 0 0 0 0 0 0 0 0 0 0 0 0 0 0 0 0 0 0 0 0 0 0 0
0 0 0 0 0 0 0 0 0 0 0 0 0 0 0 0 0 0 0 0 0 0 0 -0 0 0 0 0 0 0 0 0 0 0 0 0 0 0 0 0 0 0 0 0 0 0 0 0 0 0 0 0 -0 0
Wind_Speed_500mb
25 26 25 25 26 28 28 28 28 28 29 31 30 30 27 24 23 23 18 10 15 28 47 30 23 25 26 22 16 6 18 17 16 15 19 20 19 22 17 16 18 19 12 14 18 24 27 21 13 6 6 15 21 30
27 26 27 28 28 29 28 28 29 28 28 28 28 26 26 27 23 24 21 12 18 26 34 31 31 29 27 23 22 17 22 3 30 12 15 11 15 11 10 16 17 21 14 12 10 8 17 10 15 4 14 22 26 28
22 25 26 28 29 31 32 31 29 29 28 27 28 28 29 27 25 25 29 21 16 32 46 49 54 46 37 33 24 12 23 13 7 8 15 8 8 9 14 16 20 17 30 13 9 13 19 10 13 17 19 17 18 25
24 25 25 24 25 26 29 33 33 31 30 28 27 28 30 29 29 29 29 20 23 24 21 34 25 30 30 31 35 37 31 18 15 12 22 12 17 17 17 21 21 23 7 13 17 26 36 34 18 8 7 13 20 24
26 26 27 27 28 29 30 28 32 34 32 30 28 27 30 31 31 32 34 33 25 21 14 29 37 27 30 29 32 38 34 26 25 25 21 18 34 26 30 25 19 30 17 15 16 26 9 14 4 6 10 15 18 23
27 26 27 28 28 29 28 28 28 31 33 32 30 28 30 33 27 22 16 42 37 24 14 11 15 32 35 30 27 31 38 35 32 36 34 40 39 12 12 19 32 44 33 36 29 19 13 13 9 11 13 11 16 20
30 28 28 28 28 27 27 25 23 25 30 31 30 29 30 32 28 22 12 10 27 44 14 12 16 45 35 30 30 31 33 38 36 41 43 44 42 23 20 26 35 49 30 23 18 17 13 16 18 10 5 12 15 22
32 32 31 30 29 28 26 25 21 23 29 30 29 28 28 31 35 40 42 36 13 31 17 10 18 5 37 34 35 34 33 34 39 44 33 39 42 35 19 29 37 44 50 31 27 26 22 13 11 9 10 12 18 22
36 33 30 33 32 28 25 23 21 22 28 22 20 18 22 23 18 25 23 36 46 22 10 9 19 19 33 38 35 31 26 18 28 33 40 26 22 20 21 39 34 36 34 41 29 29 27 24 18 14 10 13 16 21
37 34 31 31 30 29 27 24 19 18 20 11 11 8 9 14 24 10 8 8 6 10 17 10 24 16 19 24 31 22 18 15 14 24 33 25 26 43 49 42 29 23 31 31 32 36 32 25 19 15 8 7 13 19
33 35 33 29 29 28 29 27 21 15 10 11 12 15 7 9 14 10 9 8 9 8 17 22 52 20 24 18 13 7 5 8 16 21 20 14 22 41 65 57 54 45 37 31 34 34 30 22 17 9 3 6 12 18
32 36 36 30 31 30 29 28 23 21 16 13 15 10 10 10 10 8 7 10 12 13 25 26 45 54 15 2 7 11 6 8 12 13 19 33 19 36 42 55 62 57 43 40 36 28 22 18 14 11 5 5 10 16
36 33 36 32 33 31 33 31 30 20 30 16 15 12 12 10 13 13 17 10 10 13 18 23 26 36 12 5 6 9 11 12 14 8 15 14 17 25 34 43 43 57 44 42 37 31 24 21 18 12 6 8 11 16
38 36 35 33 32 31 35 34 28 27 27 11 13 8 12 11 13 15 20 22 30 28 25 34 34 13 15 9 10 11 11 9 14 16 22 14 18 27 30 29 47 55 46 38 34 31 27 22 15 12 6 9 12 18
29 30 31 35 35 34 35 38 32 31 18 12 10 12 16 27 34 30 45 33 25 29 32 32 20 12 10 9 9 10 10 15 12 22 21 28 44 38 25 31 50 55 47 42 36 31 24 18 13 9 6 8 16 15
35 27 34 36 35 37 36 39 33 29 15 11 17 11 28 31 41 46 29 23 27 36 26 12 10 9 11 13 15 18 14 14 14 16 21 29 30 39 36 32 47 48 44 40 34 28 22 15 11 7 7 13 13 12
25 24 21 35 35 37 40 34 32 17 15 13 17 34 41 30 33 39 34 39 16 18 6 7 10 15 13 12 21 17 25 20 30 8 17 25 47 55 50 49 47 45 42 39 32 25 20 14 10 8 12 7 10 17
34 25 22 27 41 45 46 33 12 15 18 23 27 42 44 44 33 43 40 23 9 17 7 6 8 14 13 17 16 24 43 32 24 13 21 37 46 52 53 53 46 44 40 35 28 23 17 13 11 11 4 5 10 16
25 24 32 38 48 41 19 17 22 11 31 32 44 50 50 39 33 37 38 24 19 22 6 6 2 9 17 12 19 21 29 28 27 24 27 37 45 51 50 48 43 40 36 31 25 19 12 11 4 5 7 4 8 12
30 22 28 42 43 14 9 13 20 19 14 27 46 47 56 54 40 44 40 34 28 12 12 8 12 22 31 40 33 32 19 28 42 44 39 36 43 43 50 44 40 36 31 25 21 17 10 8 10 13 9 5 4 5
31 28 27 42 41 17 8 12 16 20 32 32 24 41 46 45 43 42 43 33 27 13 11 27 35 39 33 54 47 39 9 36 32 41 48 48 45 46 44 38 38 29 28 23 21 25 14 11 11 6 1 15 6 4
26 34 33 47 11 11 15 21 16 14 15 22 25 35 29 31 42 43 37 25 19 31 29 33 31 28 25 33 44 14 17 20 16 33 40 56 51 47 43 38 34 29 22 18 15 17 11 8 12 5 4 3 5 6
37 28 19 14 12 14 17 25 16 14 9 8 15 22 29 37 42 30 15 24 26 28 27 29 29 30 33 20 46 28 13 30 18 33 42 49 45 42 39 34 30 25 21 18 14 12 13 6 4 1 4 7 3 25
23 17 14 17 25 11 15 15 13 11 11 13 7 8 10 21 20 17 12 16 19 19 26 28 30 27 31 33 28 39 39 38 22 36 42 39 38 33 31 28 22 18 15 12 14 14 10 10 8 6 11 9 4 4
11 14 11 13 17 11 10 9 12 14 14 12 4 9 8 14 11 13 19 25 25 23 27 27 31 36 33 27 28 38 34 21 23 40 34 32 34 27 21 20 18 14 16 15 12 11 10 9 16 13 14 7 6 12
9 15 15 16 22 19 13 16 16 22 11 4 14 9 10 3 9 8 11 16 23 18 14 25 50 26 35 26 27 31 21 19 14 13 18 25 30 29 26 22 21 19 14 12 9 9 9 16 21 18 9 9 19 2
8 12 22 32 32 18 14 18 13 10 11 7 8 6 5 5 7 5 12 15 18 16 8 39 43 30 31 21 31 27 19 16 13 20 28 16 22 17 17 19 13 22 18 12 4 10 10 16 19 18 4 10 11 11
12 13 19 29 31 12 4 9 6 3 2 5 9 6 8 5 7 12 14 9 9 15 16 32 27 25 22 27 28 30 27 14 20 28 26 23 21 19 17 15 19 16 11 8 11 5 10 17 19 14 10 8 12 15
17 14 16 13 8 6 5 10 10 12 20 15 4 6 8 8 9 12 9 6 7 8 18 18 19 17 26 44 43 25 15 18 27 24 26 25 21 19 17 10 12 13 7 9 19 14 9 12 17 18 14 19 19 11
6 11 2 13 5 6 9 10 7 11 11 12 12 16 14 12 17 16 12 8 7 7 12 18 30 35 29 25 22 20 24 22 20 20 23 20 21 26 21 19 16 12 14 12 7 18 21 16 13 15 21 22 22 15
3 4 7 6 4 5 7 11 15 17 27 23 18 19 12 9 9 21 26 19 14 14 18 22 23 26 30 28 27 33 28 19 16 22 23 17 17 19 17 18 14 15 13 8 5 9 17 19 17 21 20 19 15 16
4 3 9 7 7 12 12 9 8 10 9 11 11 11 11 10 10 16 30 23 21 27 27 29 34 28 27 28 22 28 30 27 25 20 19 17 17 13 10 12 16 19 17 18 14 17 18 14 17 19 19 15 14 25
7 12 16 14 9 9 13 11 8 10 12 8 11 14 13 8 4 9 10 18 21 15 25 26 16 21 20 23 23 22 18 12 3 6 10 14 15 18 16 15 26 28 27 18 19 18 18 18 23 19 13 11 27 30
Wind_Direction_500mb
259 261 263 264 264 264 265 270 274 275 272 271 271 273 273 263 256 252 219 259 270 272 270 288 292 278 287 289 289 46 141 193 203 236 250 258 262 267 263 278 263 264 201 234 265 264 270 96 117 203 7 333 311 315
260 264 264 266 264 264 266 265 268 271 274 272 263 268 269 269 263 248 246 277 265 263 259 289 282 262 260 272 303 298 269 186 210 233 223 254 261 276 229 266 284 260 260 286 251 275 155 192 235 220 286 299 310 314
259 268 274 272 269 265 264 265 266 267 271 271 264 256 258 257 259 255 243 253 286 277 282 266 259 256 248 243 238 257 256 307 271 298 323 303 288 293 271 276 279 237 218 220 262 267 275 301 252 253 278 294 319 315
257 261 266 273 281 285 273 265 261 262 264 267 266 256 252 254 250 252 256 249 270 277 279 271 273 222 223 223 229 236 255 291 288 275 265 271 273 267 264 279 279 281 330 238 261 262 268 270 236 250 302 304 303 312
258 262 265 269 273 276 279 282 264 257 258 260 263 259 249 255 252 251 251 241 236 254 308 289 294 234 225 223 233 228 234 240 244 239 241 250 261 270 269 275 258 260 269 263 255 274 287 295 273 274 278 296 312 324
259 263 265 270 271 270 274 274 279 261 252 252 256 257 250 247 258 266 282 256 235 221 279 270 262 230 216 215 224 224 224 230 234 241 248 255 255 249 264 259 262 250 250 261 277 252 251 226 246 257 274 293 316 325
255 262 267 272 272 267 268 266 278 273 263 252 250 252 253 247 249 219 226 197 216 203 227 247 245 241 218 213 224 224 220 226 228 240 241 252 256 213 246 256 266 280 263 259 235 220 216 229 242 229 263 298 310 313
259 260 266 268 271 266 264 261 264 269 277 259 249 252 257 256 251 255 240 249 259 200 200 252 256 218 187 207 222 212 216 219 231 236 244 240 243 231 240 250 254 257 256 244 220 223 221 226 203 241 259 294 308 324
253 259 261 266 264 256 257 252 249 267 273 275 251 254 269 255 244 249 271 255 258 253 307 267 237 224 180 217 218 196 216 229 231 226 232 246 232 227 219 230 244 258 247 241 220 209 214 226 233 238 264 296 326 329
248 252 258 267 252 245 242 236 235 264 284 262 178 203 249 225 229 218 237 212 228 216 208 265 257 254 220 206 217 200 189 230 239 220 238 228 240 249 233 238 237 249 252 221 208 202 210 220 224 231 251 318 323 325
250 248 251 263 244 238 234 230 232 239 257 188 198 219 233 182 181 195 204 188 177 247 214 223 230 258 240 249 213 39 314 263 243 226 226 233 239 235 237 239 238 237 255 209 208 210 206 219 219 186 230 311 323 328
254 248 245 258 238 232 223 216 217 220 187 208 219 216 203 197 194 174 196 198 207 224 196 205 214 206 223 131 120 172 265 255 249 241 218 234 241 240 232 238 233 227 230 200 202 197 197 182 184 179 198 301 322 326
251 250 241 249 233 227 216 211 211 207 230 232 208 216 179 212 214 208 194 203 215 215 190 185 200 184 169 144 231 170 212 247 277 240 244 239 255 229 237 233 214 203 207 195 193 193 187 185 181 191 221 303 320 325
251 243 239 236 223 221 210 205 198 202 215 232 212 231 213 193 231 207 233 221 211 234 201 204 172 144 166 154 251 193 219 263 240 223 229 234 223 249 220 213 185 185 185 182 182 181 182 190 193 182 258 295 310 325
231 229 232 222 214 211 205 198 194 197 213 229 249 223 219 234 242 239 229 221 229 255 214 218 137 150 139 168 227 208 199 230 232 235 233 218 225 240 195 198 173 172 177 170 173 175 183 184 192 215 265 309 312 316
218 225 227 211 206 200 201 188 190 195 211 240 220 251 254 244 235 242 250 262 255 237 224 144 126 230 176 178 197 210 217 226 236 236 214 207 213 178 169 161 152 156 159 164 166 173 178 181 197 218 284 304 314 318
226 214 235 206 196 190 194 179 188 213 215 230 231 228 257 278 270 262 278 228 238 260 242 75 230 190 168 206 205 214 231 251 257 199 202 222 167 162 162 156 154 158 159 161 165 168 173 181 195 242 285 300 314 306
211 204 199 190 186 187 183 196 223 224 225 237 246 245 242 247 254 268 275 265 245 258 132 157 357 248 203 205 199 223 249 247 212 192 155 166 163 159 158 153 159 158 160 162 167 171 179 196 231 257 243 314 329 342
195 204 202 191 189 180 179 206 224 261 224 232 235 243 248 255 264 266 269 275 256 228 180 135 152 279 257 340 347 348 267 196 162 138 150 163 161 155 154 156 157 159 163 166 169 177 194 185 221 279 264 283 3 349
179 201 179 187 187 192 186 236 212 231 252 238 235 242 240 243 242 255 258 250 236 216 170 193 220 217 312 321 321 323 320 168 157 148 156 167 164 162 156 157 159 162 165 171 177 185 214 215 221 206 184 261 331 336
176 187 179 185 191 224 254 270 227 247 233 239 245 236 242 245 241 247 258 243 233 232 222 232 250 262 255 272 295 302 175 207 179 166 167 167 169 158 159 162 159 168 176 180 195 178 186 223 215 189 274 140 95 276
179 171 170 191 189 214 246 242 252 285 275 257 258 254 243 239 242 239 238 234 235 231 227 244 256 267 263 255 268 335 230 221 208 211 188 165 160 163 171 167 170 175 180 187 184 186 185 171 163 143 210 191 134 331
157 169 174 175 210 225 255 226 242 231 231 250 239 243 248 240 245 235 224 224 246 248 252 255 260 249 237 251 254 259 224 190 217 223 177 158 166 169 171 166 179 182 180 174 181 179 151 121 225 253 184 151 276 317
167 172 203 201 202 240 229 219 230 254 248 229 203 250 236 222 216 213 231 216 233 237 244 243 233 234 224 231 225 223 210 203 244 177 163 175 156 163 168 170 171 178 181 172 170 177 195 194 186 224 171 138 125 311
170 213 202 229 203 204 223 214 211 219 231 194 218 238 212 203 209 216 223 210 204 208 218 230 213 204 215 221 222 196 185 206 203 156 172 167 160 155 161 164 163 166 180 179 176 192 215 200 163 153 148 170 284 303
224 215 204 215 211 215 223 231 213 212 209 173 227 218 146 188 237 225 182 181 181 177 225 213 178 180 189 193 173 172 178 179 197 124 157 165 170 168 172 176 177 182 182 180 190 207 210 168 148 150 189 296 319 308
249 240 220 229 261 276 246 251 242 295 212 168 262 153 146 240 182 92 102 73 140 142 156 186 171 168 169 176 180 183 176 163 148 192 191 186 155 146 162 172 130 126 141 151 195 242 236 172 159 153 209 306 343 130
257 282 243 226 228 235 282 273 257 226 326 98 184 229 186 3 51 51 90 105 104 145 123 156 159 150 173 188 178 155 155 162 175 181 160 142 143 144 114 131 134 142 161 159 157 159 168 159 169 169 171 188 173 165
240 257 238 218 94 75 348 20 40 26 351 338 348 33 44 48 43 27 47 66 142 133 149 141 140 146 143 144 146 156 166 169 167 150 152 154 157 160 152 127 127 132 102 152 173 153 154 163 169 187 178 178 171 159
231 339 151 84 75 50 26 22 56 51 44 46 77 93 93 88 63 24 23 45 174 200 156 154 160 150 163 170 167 159 155 152 164 179 188 167 163 156 147 147 165 153 138 174 232 217 225 242 216 179 159 170 166 151
103 164 76 79 104 144 132 98 77 81 53 69 91 111 94 89 74 47 37 57 73 106 112 133 145 133 136 148 170 168 138 147 133 105 108 129 149 151 143 149 147 147 163 203 142 171 155 141 152 154 161 154 158 175
60 67 125 121 140 151 152 157 108 90 59 56 56 75 88 63 46 36 23 46 71 78 86 117 107 109 120 135 120 131 108 117 115 132 110 99 102 103 156 158 158 168 178 157 145 152 157 156 155 150 150 152 162 169
115 123 128 127 140 163 166 151 130 110 74 45 31 42 50 65 21 29 47 64 52 62 79 92 87 81 94 117 110 108 131 115 131 232 257 263 254 241 218 206 163 154 155 140 140 142 148 141 140 144 149 148 160 158
Wind_Speed_850mb
25 26 25 25 26 28 28 28 28 28 29 31 30 30 27 24 23 23 18 10 15 28 47 30 23 25 26 22 16 6 18 17 16 15 19 20 19 22 17 16 18 19 12 14 18 24 27 21 13 6 6 15 21 30
27 26 27 28 28 29 28 28 29 28 28 28 28 26 26 27 23 24 21 12 18 26 34 31 31 29 27 23 22 17 22 3 30 12 15 11 15 11 10 16 17 21 14 12 10 8 17 10 15 4 14 22 26 28
22 25 26 28 29 31 32 31 29 29 28 27 28 28 29 27 25 25 29 21 16 32 46 49 54 46 37 33 24 12 23 13 7 8 15 8 8 9 14 16 20 17 30 13 9 13 19 10 13 17 19 17 18 25
24 25 25 24 25 26 29 33 33 31 30 28 27 28 30 29 29 29 29 20 23 24 21 34 25 30 30 31 35 37 31 18 15 12 22 12 17 17 17 21 21 23 7 13 17 26 36 34 18 8 7 13 20 24
26 26 27 27 28 29 30 28 32 34 32 30 28 27 30 31 31 32 34 33 25 21 14 29 37 27 30 29 32 38 34 26 25 25 21 18 34 26 30 25 19 30 17 15 16 26 9 14 4 6 10 15 18 23
27 26 27 28 28 29 28 28 28 31 33 32 30 28 30 33 27 22 16 42 37 24 14 11 15 32 35 30 27 31 38 35 32 36 34 40 39 12 12 19 32 44 33 36 29 19 13 13 9 11 13 11 16 20
30 28 28 28 28 27 27 25 23 25 30 31 30 29 30 32 28 22 12 10 27 44 14 12 16 45 35 30 30 31 33 38 36 41 43 44 42 23 20 26 35 49 30 23 18 17 13 16 18 10 5 12 15 22
32 32 31 30 29 28 26 25 21 23 29 30 29 28 28 31 35 40 42 36 13 31 17 10 18 5 37 34 35 34 33 34 39 44 33 39 42 35 19 29 37 44 50 31 27 26 22 13 11 9 10 12 18 22
36 33 30 33 32 28 25 23 21 22 28 22 20 18 22 23 18 25 23 36 46 22 10 9 19 19 33 38 35 31 26 18 28 33 40 26 22 20 21 39 34 36 34 41 29 29 27 24 18 14 10 13 16 21
37 34 31 31 30 29 27 24 19 18 20 11 11 8 9 14 24 10 8 8 6 10 17 10 24 16 19 24 31 22 18 15 14 24 33 25 26 43 49 42 29 23 31 31 32 36 32 25 19 15 8 7 13 19
33 35 33 29 29 28 29 27 21 15 10 11 12 15 7 9 14 10 9 8 9 8 17 22 52 20 24 18 13 7 5 8 16 21 20 14 22 41 65 57 54 45 37 31 34 34 30 22 17 9 3 6 12 18
32 36 36 30 31 30 29 28 23 21 16 13 15 10 10 10 10 8 7 10 12 13 25 26 45 54 15 2 7 11 6 8 12 13 19 33 19 36 42 55 62 57 43 40 36 28 22 18 14 11 5 5 10 16
36 33 36 32 33 31 33 31 30 20 30 16 15 12 12 10 13 13 17 10 10 13 18 23 26 36 12 5 6 9 11 12 14 8 15 14 17 25 34 43 43 57 44 42 37 31 24 21 18 12 6 8 11 16
38 36 35 33 32 31 35 34 28 27 27 11 13 8 12 11 13 15 20 22 30 28 25 34 34 13 15 9 10 11 11 9 14 16 22 14 18 27 30 29 47 55 46 38 34 31 27 22 15 12 6 9 12 18
29 30 31 35 35 34 35 38 32 31 18 12 10 12 16 27 34 30 45 33 25 29 32 32 20 12 10 9 9 10 10 15 12 22 21 28 44 38 25 31 50 55 47 42 36 31 24 18 13 9 6 8 16 15
35 27 34 36 35 37 36 39 33 29 15 11 17 11 28 31 41 46 29 23 27 36 26 12 10 9 11 13 15 18 14 14 14 16 21 29 30 39 36 32 47 48 44 40 34 28 22 15 11 7 7 13 13 12
25 24 21 35 35 37 40 34 32 17 15 13 17 34 41 30 33 39 34 39 16 18 6 7 10 15 13 12 21 17 25 20 30 8 17 25 47 55 50 49 47 45 42 39 32 25 20 14 10 8 12 7 10 17
34 25 22 27 41 45 46 33 12 15 18 23 27 42 44 44 33 43 40 23 9 17 7 6 8 14 13 17 16 24 43 32 24 13 21 37 46 52 53 53 46 44 40 35 28 23 17 13 11 11 4 5 10 16
25 24 32 38 48 41 19 17 22 11 31 32 44 50 50 39 33 37 38 24 19 22 6 6 2 9 17 12 19 21 29 28 27 24 27 37 45 51 50 48 43 40 36 31 25 19 12 11 4 5 7 4 8 12
30 22 28 42 43 14 9 13 20 19 14 27 46 47 56 54 40 44 40 34 28 12 12 8 12 22 31 40 33 32 19 28 42 44 39 36 43 43 50 44 40 36 31 25 21 17 10 8 10 13 9 5 4 5
31 28 27 42 41 17 8 12 16 20 32 32 24 41 46 45 43 42 43 33 27 13 11 27 35 39 33 54 47 39 9 36 32 41 48 48 45 46 44 38 38 29 28 23 21 25 14 11 11 6 1 15 6 4
26 34 33 47 11 11 15 21 16 14 15 22 25 35 29 31 42 43 37 25 19 31 29 33 31 28 25 33 44 14 17 20 16 33 40 56 51 47 43 38 34 29 22 18 15 17 11 8 12 5 4 3 5 6
37 28 19 14 12 14 17 25 16 14 9 8 15 22 29 37 42 30 15 24 26 28 27 29 29 30 33 20 46 28 13 30 18 33 42 49 45 42 39 34 30 25 21 18 14 12 13 6 4 1 4 7 3 25
23 17 14 17 25 11 15 15 13 11 11 13 7 8 10 21 20 17 12 16 19 19 26 28 30 27 31 33 28 39 39 38 22 36 42 39 38 33 31 28 22 18 15 12 14 14 10 10 8 6 11 9 4 4
11 14 11 13 17 11 10 9 12 14 14 12 4 9 8 14 11 13 19 25 25 23 27 27 31 36 33 27 28 38 34 21 23 40 34 32 34 27 21 20 18 14 16 15 12 11 10 9 16 13 14 7 6 12
9 15 15 16 22 19 13 16 16 22 11 4 14 9 10 3 9 8 11 16 23 18 14 25 50 26 35 26 27 31 21 19 14 13 18 25 30 29 26 22 21 19 14 12 9 9 9 16 21 18 9 9 19 2
8 12 22 32 32 18 14 18 13 10 11 7 8 6 5 5 7 5 12 15 18 16 8 39 43 30 31 21 31 27 19 16 13 20 28 16 22 17 17 19 13 22 18 12 4 10 10 16 19 18 4 10 11 11
12 13 19 29 31 12 4 9 6 3 2 5 9 6 8 5 7 12 14 9 9 15 16 32 27 25 22 27 28 30 27 14 20 28 26 23 21 19 17 15 19 16 11 8 11 5 10 17 19 14 10 8 12 15
17 14 16 13 8 6 5 10 10 12 20 15 4 6 8 8 9 12 9 6 7 8 18 18 19 17 26 44 43 25 15 18 27 24 26 25 21 19 17 10 12 13 7 9 19 14 9 12 17 18 14 19 19 11
6 11 2 13 5 6 9 10 7 11 11 12 12 16 14 12 17 16 12 8 7 7 12 18 30 35 29 25 22 20 24 22 20 20 23 20 21 26 21 19 16 12 14 12 7 18 21 16 13 15 21 22 22 15
3 4 7 6 4 5 7 11 15 17 27 23 18 19 12 9 9 21 26 19 14 14 18 22 23 26 30 28 27 33 28 19 16 22 23 17 17 19 17 18 14 15 13 8 5 9 17 19 17 21 20 19 15 16
4 3 9 7 7 12 12 9 8 10 9 11 11 11 11 10 10 16 30 23 21 27 27 29 34 28 27 28 22 28 30 27 25 20 19 17 17 13 10 12 16 19 17 18 14 17 18 14 17 19 19 15 14 25
7 12 16 14 9 9 13 11 8 10 12 8 11 14 13 8 4 9 10 18 21 15 25 26 16 21 20 23 23 22 18 12 3 6 10 14 15 18 16 15 26 28 27 18 19 18 18 18 23 19 13 11 27 30
Wind_Direction_850mb
259 261 263 264 264 264 265 270 274 275 272 271 271 273 273 263 256 252 219 259 270 272 270 288 292 278 287 289 289 46 141 193 203 236 250 258 262 267 263 278 263 264 201 234 265 264 270 96 117 203 7 333 311 315
260 264 264 266 264 264 266 265 268 271 274 272 263 268 269 269 263 248 246 277 265 263 259 289 282 262 260 272 303 298 269 186 210 233 223 254 261 276 229 266 284 260 260 286 251 275 155 192 235 220 286 299 310 314
259 268 274 272 269 265 264 265 266 267 271 271 264 256 258 257 259 255 243 253 286 277 282 266 259 256 248 243 238 257 256 307 271 298 323 303 288 293 271 276 279 237 218 220 262 267 275 301 252 253 278 294 319 315
257 261 266 273 281 285 273 265 261 262 264 267 266 256 252 254 250 252 256 249 270 277 279 271 273 222 223 223 229 236 255 291 288 275 265 271 273 267 264 279 279 281 330 238 261 262 268 270 236 250 302 304 303 312
258 262 265 269 273 276 279 282 264 257 258 260 263 259 249 255 252 251 251 241 236 254 308 289 294 234 225 223 233 228 234 240 244 239 241 250 261 270 269 275 258 260 269 263 255 274 287 295 273 274 278 296 312 324
259 263 265 270 271 270 274 274 279 261 252 252 256 257 250 247 258 266 282 256 235 221 279 270 262 230 216 215 224 224 224 230 234 241 248 255 255 249 264 259 262 250 250 261 277 252 251 226 246 257 274 293 316 325
255 262 267 272 272 267 268 266 278 273 263 252 250 252 253 247 249 219 226 197 216 203 227 247 245 241 218 213 224 224 220 226 228 240 241 252 256 213 246 256 266 280 263 259 235 220 216 229 242 229 263 298 310 313
259 260 266 268 271 266 264 261 264 269 277 259 249 252 257 256 251 255 240 249 259 200 200 252 256 218 187 207 222 212 216 219 231 236 244 240 243 231 240 250 254 257 256 244 220 223 221 226 203 241 259 294 308 324
253 259 261 266 264 256 257 252 249 267 273 275 251 254 269 255 244 249 271 255 258 253 307 267 237 224 180 217 218 196 216 229 231 226 232 246 232 227 219 230 244 258 247 241 220 209 214 226 233 238 264 296 326 329
248 252 258 267 252 245 242 236 235 264 284 262 178 203 249 225 229 218 237 212 228 216 208 265 257 254 220 206 217 200 189 230 239 220 238 228 240 249 233 238 237 249 252 221 208 202 210 220 224 231 251 318 323 325
250 248 251 263 244 238 234 230 232 239 257 188 198 219 233 182 181 195 204 188 177 247 214 223 230 258 240 249 213 39 314 263 243 226 226 233 239 235 237 239 238 237 255 209 208 210 206 219 219 186 230 311 323 328
254 248 245 258 238 232 223 216 217 220 187 208 219 216 203 197 194 174 196 198 207 224 196 205 214 206 223 131 120 172 265 255 249 241 218 234 241 240 232 238 233 227 230 200 202 197 197 182 184 179 198 301 322 326
251 250 241 249 233 227 216 211 211 207 230 232 208 216 179 212 214 208 194 203 215 215 190 185 200 184 169 144 231 170 212 247 277 240 244 239 255 229 237 233 214 203 207 195 193 193 187 185 181 191 221 303 320 325
251 243 239 236 223 221 210 205 198 202 215 232 212 231 213 193 231 207 233 221 211 234 201 204 172 144 166 154 251 193 219 263 240 223 229 234 223 249 220 213 185 185 185 182 182 181 182 190 193 182 258 295 310 325
231 229 232 222 214 211 205 198 194 197 213 229 249 223 219 234 242 239 229 221 229 255 214 218 137 150 139 168 227 208 199 230 232 235 233 218 225 240 195 198 173 172 177 170 173 175 183 184 192 215 265 309 312 316
218 225 227 211 206 200 201 188 190 195 211 240 220 251 254 244 235 242 250 262 255 237 224 144 126 230 176 178 197 210 217 226 236 236 214 207 213 178 169 161 152 156 159 164 166 173 178 181 197 218 284 304 314 318
226 214 235 206 196 190 194 179 188 213 215 230 231 228 257 278 270 262 278 228 238 260 242 75 230 190 168 206 205 214 231 251 257 199 202 222 167 162 162 156 154 158 159 161 165 168 173 181 195 242 285 300 314 306
211 204 199 190 186 187 183 196 223 224 225 237 246 245 242 247 254 268 275 265 245 258 132 157 357 248 203 205 199 223 249 247 212 192 155 166 163 159 158 153 159 158 160 162 167 171 179 196 231 257 243 314 329 342
195 204 202 191 189 180 179 206 224 261 224 232 235 243 248 255 264 266 269 275 256 228 180 135 152 279 257 340 347 348 267 196 162 138 150 163 161 155 154 156 157 159 163 166 169 177 194 185 221 279 264 283 3 349
179 201 179 187 187 192 186 236 212 231 252 238 235 242 240 243 242 255 258 250 236 216 170 193 220 217 312 321 321 323 320 168 157 148 156 167 164 162 156 157 159 162 165 171 177 185 214 215 221 206 184 261 331 336
176 187 179 185 191 224 254 270 227 247 233 239 245 236 242 245 241 247 258 243 233 232 222 232 250 262 255 272 295 302 175 207 179 166 167 167 169 158 159 162 159 168 176 180 195 178 186 223 215 189 274 140 95 276
179 171 170 191 189 214 246 242 252 285 275 257 258 254 243 239 242 239 238 234 235 231 227 244 256 267 263 255 268 335 230 221 208 211 188 165 160 163 171 167 170 175 180 187 184 186 185 171 163 143 210 191 134 331
157 169 174 175 210 225 255 226 242 231 231 250 239 243 248 240 245 235 224 224 246 248 252 255 260 249 237 251 254 259 224 190 217 223 177 158 166 169 171 166 179 182 180 174 181 179 151 121 225 253 184 151 276 317
167 172 203 201 202 240 229 219 230 254 248 229 203 250 236 222 216 213 231 216 233 237 244 243 233 234 224 231 225 223 210 203 244 177 163 175 156 163 168 170 171 178 181 172 170 177 195 194 186 224 171 138 125 311
170 213 202 229 203 204 223 214 211 219 231 194 218 238 212 203 209 216 223 210 204 208 218 230 213 204 215 221 222 196 185 206 203 156 172 167 160 155 161 164 163 166 180 179 176 192 215 200 163 153 148 170 284 303
224 215 204 215 211 215 223 231 213 212 209 173 227 218 146 188 237 225 182 181 181 177 225 213 178 180 189 193 173 172 178 179 197 124 157 165 170 168 172 176 177 182 182 180 190 207 210 168 148 150 189 296 319 308
249 240 220 229 261 276 246 251 242 295 212 168 262 153 146 240 182 92 102 73 140 142 156 186 171 168 169 176 180 183 176 163 148 192 191 186 155 146 162 172 130 126 141 151 195 242 236 172 159 153 209 306 343 130
257 282 243 226 228 235 282 273 257 226 326 98 184 229 186 3 51 51 90 105 104 145 123 156 159 150 173 188 178 155 155 162 175 181 160 142 143 144 114 131 134 142 161 159 157 159 168 159 169 169 171 188 173 165
240 257 238 218 94 75 348 20 40 26 351 338 348 33 44 48 43 27 47 66 142 133 149 141 140 146 143 144 146 156 166 169 167 150 152 154 157 160 152 127 127 132 102 152 173 153 154 163 169 187 178 178 171 159
231 339 151 84 75 50 26 22 56 51 44 46 77 93 93 88 63 24 23 45 174 200 156 154 160 150 163 170 167 159 155 152 164 179 188 167 163 156 147 147 165 153 138 174 232 217 225 242 216 179 159 170 166 151
103 164 76 79 104 144 132 98 77 81 53 69 91 111 94 89 74 47 37 57 73 106 112 133 145 133 136 148 170 168 138 147 133 105 108 129 149 151 143 149 147 147 163 203 142 171 155 141 152 154 161 154 158 175
60 67 125 121 140 151 152 157 108 90 59 56 56 75 88 63 46 36 23 46 71 78 86 117 107 109 120 135 120 131 108 117 115 132 110 99 102 103 156 158 158 168 178 157 145 152 157 156 155 150 150 152 162 169
115 123 128 127 140 163 166 151 130 110 74 45 31 42 50 65 21 29 47 64 52 62 79 92 87 81 94 117 110 108 131 115 131 232 257 263 254 241 218 206 163 154 155 140 140 142 148 141 140 144 149 148 160 158